When you browse on this site, cookies collect data to enhance your experience and personalize the content and advertising you see.
Visit our Privacy Policy to learn more. By continuing to use the site, you agree to this use of cookies and data.
  • Em Portugal
  • Lista de países
  • Para 7 dias
  • Temperatura da água
  • Mapas de satélite
  • Mapa do tempo
  • Widgets de tempo
  • user-avatar
    Iniciar Sessão

    Previsão horária em Corozal

    Hoje, 11 Dezembro, Terça-feira

    Tempo Temperatura Precipitação Vento Pressão Humidade
    00:00 +20°C° 0 mm 4 m/s 766 mmHg 80%
    01:00 +20°C° 0 mm 3 m/s 766 mmHg 82%
    02:00 +19°C° 0 mm 3 m/s 766 mmHg 84%
    03:00 +19°C° 0 mm 3 m/s 766 mmHg 86%
    04:00 +18°C° 0 mm 3 m/s 766 mmHg 88%
    05:00 +18°C° 0 mm 3 m/s 766 mmHg 89%
    06:00 +18°C° 0 mm 3 m/s 767 mmHg 90%
    07:00 +19°C° 0 mm 3 m/s 767 mmHg 82%
    08:00 +21°C° 0 mm 4 m/s 767 mmHg 74%
    09:00 +22°C° 0 mm 4 m/s 767 mmHg 66%
    10:00 +25°C° 0 mm 4 m/s 767 mmHg 61%
    11:00 +26°C° 0 mm 4 m/s 766 mmHg 56%
    12:00 +27°C° 0 mm 3 m/s 766 mmHg 52%
    13:00 +27°C° 0 mm 3 m/s 766 mmHg 52%
    14:00 +27°C° 0 mm 3 m/s 765 mmHg 51%
    15:00 +28°C° 0 mm 3 m/s 765 mmHg 51%
    16:00 +26°C° 0 mm 3 m/s 765 mmHg 56%
    17:00 +25°C° 0 mm 3 m/s 765 mmHg 61%
    18:00 +22°C° 0 mm 3 m/s 765 mmHg 66%
    19:00 +21°C° 0 mm 3 m/s 765 mmHg 69%
    20:00 +20°C° 0 mm 3 m/s 766 mmHg 72%
    21:00 +20°C° 0 mm 3 m/s 766 mmHg 75%
    22:00 +19°C° 0 mm 3 m/s 766 mmHg 77%
    23:00 +18°C° 0 mm 2 m/s 766 mmHg 79%

    Amanhã, 12 Dezembro, Quarta-feira

    Tempo Temperatura Precipitação Vento Pressão Humidade
    00:00 +18°C° 0 mm 2 m/s 765 mmHg 81%
    01:00 +17°C° 0 mm 2 m/s 765 mmHg 81%
    02:00 +17°C° 0 mm 2 m/s 765 mmHg 82%
    03:00 +17°C° 0 mm 2 m/s 765 mmHg 83%
    04:00 +16°C° 0 mm 2 m/s 765 mmHg 84%
    05:00 +16°C° 0 mm 2 m/s 765 mmHg 85%
    06:00 +16°C° 0 mm 2 m/s 765 mmHg 85%
    07:00 +18°C° 0 mm 2 m/s 765 mmHg 79%
    08:00 +20°C° 0 mm 2 m/s 765 mmHg 72%
    09:00 +23°C° 0 mm 2 m/s 765 mmHg 65%
    10:00 +25°C° 0 mm 2 m/s 765 mmHg 61%
    11:00 +27°C° 0 mm 2 m/s 764 mmHg 56%
    12:00 +29°C° 0 mm 1 m/s 764 mmHg 52%
    13:00 +29°C° 0 mm 2 m/s 763 mmHg 52%
    14:00 +29°C° 0 mm 2 m/s 762 mmHg 52%
    15:00 +29°C° 0 mm 2 m/s 761 mmHg 52%
    16:00 +27°C° 0 mm 2 m/s 761 mmHg 60%
    17:00 +25°C° 0 mm 2 m/s 761 mmHg 69%
    18:00 +23°C° 0 mm 2 m/s 761 mmHg 77%
    19:00 +23°C° 0 mm 2 m/s 761 mmHg 82%
    20:00 +21°C° 0 mm 2 m/s 762 mmHg 86%
    21:00 +21°C° 0 mm 2 m/s 762 mmHg 90%
    22:00 +21°C° 0 mm 2 m/s 762 mmHg 91%
    23:00 +21°C° 0 mm 2 m/s 762 mmHg 92%

    Depois de amanhã, 13 Dezembro, Quinta-feira

    Tempo Temperatura Precipitação Vento Pressão Humidade
    00:00 +21°C° 0 mm 2 m/s 761 mmHg 93%
    01:00 +21°C° 0.2 mm 2 m/s 761 mmHg 94%
    02:00 +21°C° 0.2 mm 2 m/s 761 mmHg 94%
    03:00 +22°C° 0.2 mm 1 m/s 760 mmHg 94%
    04:00 +22°C° 0.1 mm 1 m/s 760 mmHg 94%
    05:00 +23°C° 0.1 mm 1 m/s 760 mmHg 95%
    06:00 +23°C° 0.1 mm 2 m/s 760 mmHg 95%
    07:00 +24°C° 0 mm 1 m/s 760 mmHg 93%
    08:00 +25°C° 0 mm 1 m/s 761 mmHg 90%
    09:00 +25°C° 0 mm 1 m/s 761 mmHg 88%
    10:00 +27°C° 0 mm 2 m/s 761 mmHg 81%
    11:00 +29°C° 0 mm 3 m/s 760 mmHg 73%
    12:00 +32°C° 0 mm 4 m/s 759 mmHg 66%
    13:00 +31°C° 0 mm 3 m/s 759 mmHg 65%
    14:00 +31°C° 0 mm 3 m/s 758 mmHg 64%
    15:00 +33°C° 0 mm 3 m/s 758 mmHg 63%
    16:00 +30°C° 0 mm 2 m/s 758 mmHg 71%
    17:00 +28°C° 0 mm 2 m/s 758 mmHg 80%
    18:00 +26°C° 0 mm 2 m/s 758 mmHg 89%
    19:00 +26°C° 0 mm 2 m/s 759 mmHg 90%
    20:00 +26°C° 0 mm 2 m/s 759 mmHg 91%
    21:00 +25°C° 0 mm 2 m/s 759 mmHg 92%
    22:00 +25°C° 0 mm 2 m/s 759 mmHg 94%
    23:00 +24°C° 0 mm 1 m/s 759 mmHg 95%

    14 Dezembro, Sexta-feira

    Tempo Temperatura Precipitação Vento Pressão Humidade
    00:00 +24°C° 0 mm 1 m/s 759 mmHg 97%
    01:00 +24°C° 0 mm 1 m/s 759 mmHg 98%
    02:00 +23°C° 0 mm 1 m/s 759 mmHg 98%
    03:00 +23°C° 0 mm 1 m/s 759 mmHg 98%
    04:00 +23°C° 0.4 mm 1 m/s 759 mmHg 98%
    05:00 +23°C° 0.4 mm 1 m/s 760 mmHg 98%
    06:00 +23°C° 0.4 mm 1 m/s 760 mmHg 99%
    07:00 +24°C° 1 mm 1 m/s 761 mmHg 96%
    08:00 +25°C° 1 mm 2 m/s 762 mmHg 94%
    09:00 +26°C° 1 mm 2 m/s 762 mmHg 92%
    10:00 +27°C° 1 mm 2 m/s 762 mmHg 87%
    11:00 +28°C° 1 mm 3 m/s 762 mmHg 81%
    12:00 +29°C° 1 mm 3 m/s 762 mmHg 76%
    13:00 +28°C° 1 mm 3 m/s 761 mmHg 78%
    14:00 +27°C° 1 mm 3 m/s 761 mmHg 81%
    15:00 +27°C° 1 mm 4 m/s 761 mmHg 84%
    16:00 +25°C° 0.3 mm 4 m/s 761 mmHg 83%
    17:00 +23°C° 0.3 mm 4 m/s 762 mmHg 82%
    18:00 +22°C° 0.3 mm 4 m/s 762 mmHg 81%
    19:00 +22°C° 0 mm 3 m/s 763 mmHg 81%
    20:00 +21°C° 0 mm 3 m/s 764 mmHg 80%
    21:00 +21°C° 0 mm 3 m/s 765 mmHg 79%
    22:00 +20°C° 0 mm 3 m/s 765 mmHg 76%
    23:00 +19°C° 0 mm 3 m/s 765 mmHg 74%

    15 Dezembro, Sábado

    Tempo Temperatura Precipitação Vento Pressão Humidade
    00:00 +19°C° 0 mm 3 m/s 765 mmHg 71%
    01:00 +19°C° 0 mm 3 m/s 765 mmHg 70%
    02:00 +19°C° 0 mm 3 m/s 765 mmHg 69%
    03:00 +18°C° 0 mm 3 m/s 765 mmHg 68%
    04:00 +18°C° 0 mm 3 m/s 765 mmHg 71%
    05:00 +18°C° 0 mm 3 m/s 765 mmHg 73%
    06:00 +17°C° 0 mm 3 m/s 766 mmHg 75%
    07:00 +19°C° 0 mm 3 m/s 766 mmHg 69%
    08:00 +20°C° 0 mm 3 m/s 767 mmHg 63%
    09:00 +22°C° 0 mm 4 m/s 767 mmHg 58%
    10:00 +24°C° 0 mm 3 m/s 767 mmHg 53%
    11:00 +26°C° 0 mm 3 m/s 766 mmHg 49%
    12:00 +27°C° 0 mm 3 m/s 765 mmHg 45%
    13:00 +27°C° 0 mm 3 m/s 765 mmHg 44%
    14:00 +28°C° 0 mm 2 m/s 764 mmHg 44%
    15:00 +28°C° 0 mm 2 m/s 763 mmHg 43%
    16:00 +26°C° 0 mm 2 m/s 764 mmHg 50%
    17:00 +24°C° 0 mm 2 m/s 764 mmHg 57%
    18:00 +22°C° 0 mm 1 m/s 765 mmHg 64%
    19:00 +21°C° 0 mm 1 m/s 765 mmHg 67%
    20:00 +20°C° 0 mm 2 m/s 766 mmHg 70%
    21:00 +19°C° 0 mm 2 m/s 766 mmHg 73%
    22:00 +18°C° 0 mm 2 m/s 766 mmHg 75%
    23:00 +18°C° 0 mm 2 m/s 766 mmHg 77%

    16 Dezembro, Domingo

    Tempo Temperatura Precipitação Vento Pressão Humidade
    00:00 +17°C° 0 mm 2 m/s 766 mmHg 80%
    01:00 +17°C° 0 mm 2 m/s 766 mmHg 81%
    02:00 +16°C° 0 mm 2 m/s 765 mmHg 82%
    03:00 +16°C° 0 mm 2 m/s 765 mmHg 84%
    04:00 +16°C° 0 mm 2 m/s 765 mmHg 84%
    05:00 +16°C° 0 mm 2 m/s 766 mmHg 85%
    06:00 +15°C° 0 mm 2 m/s 766 mmHg 85%
    07:00 +17°C° 0 mm 2 m/s 767 mmHg 78%
    08:00 +19°C° 0 mm 2 m/s 767 mmHg 70%
    09:00 +21°C° 0 mm 2 m/s 768 mmHg 62%
    10:00 +24°C° 0 mm 2 m/s 767 mmHg 57%
    11:00 +26°C° 0 mm 2 m/s 766 mmHg 51%
    12:00 +27°C° 0 mm 2 m/s 765 mmHg 45%
    13:00 +28°C° 0 mm 2 m/s 765 mmHg 44%
    14:00 +28°C° 0 mm 2 m/s 764 mmHg 44%
    15:00 +28°C° 0 mm 1 m/s 763 mmHg 43%
    16:00 +26°C° 0 mm 1 m/s 764 mmHg 51%
    17:00 +24°C° 0 mm 1 m/s 764 mmHg 58%
    18:00 +22°C° 0 mm 1 m/s 764 mmHg 65%
    19:00 +22°C° 0 mm 1 m/s 765 mmHg 68%
    20:00 +21°C° 0 mm 1 m/s 765 mmHg 70%
    21:00 +21°C° 0 mm 1 m/s 765 mmHg 72%
    22:00 +20°C° 0 mm 1 m/s 765 mmHg 75%
    23:00 +20°C° 0 mm 1 m/s 765 mmHg 77%
    Mostrar mais